Location: Elende
(51.4317°N, 10.6316°E)
Time: 07:01:05
(UTC+00:00)

Cosmos 2266 Rocket - Pass Details

Date: 18 September 2020
Orbit: 934 x 1008 km, 82.9° (Epoch: 19 October)

Event Time Altitude Azimuth Distance (km) Brightness Sun altitude
Rises 20:57:25 0° 349° (N) 3,620 7.9 -30.0°
Reaches altitude 10° 20:59:55 10° 349° (NNW) 2,665 7.0 -30.3°
Enters shadow 21:05:35 77° 318° (NW) 965 3.9 -30.8°
